Location: Morlupo
(42.1333°N, 12.5000°E)
Time: 16:05:30
(UTC+00:00)

CENTAUR R/B - Pass Details

Date: 18 September 2020
Orbit: 755 x 1433 km, 63.4° (Epoch: 02 October)

Event Time Altitude Azimuth Distance (km) Brightness Sun altitude
Rises 21:16:25 0° 318° (NW) 4,261 6.7 -40.1°
Reaches altitude 10° 21:19:22 10° 311° (NW) 3,366 5.9 -40.5°
Enters shadow 21:25:43 36° 264° (W) 2,061 4.2 -41.1°
